Location: Chiroubles
(46.1812°N, 4.6660°E)
Time: 06:07:10
(UTC+00:00)

Transit 4A - Visible Passes

Search period start: 27 November 2020 00:00
Search period end: 07 December 2020 00:00
Orbit: 862 x 982 km, 66.8° (Epoch: 26 November)

Date Brightness Start Highest point End Pass type
(mag) Time Alt. Az. Time Alt. Az. Time Alt. Az.
27 Nov 8.0 16:33:39 10° NNW 16:40:05 86° ENE 16:46:18 10° SSE visible
27 Nov 10.6 18:21:29 10° WNW 18:25:37 18° WSW 18:29:41 10° SW visible
28 Nov 11.3 06:00:52 10° SE 06:03:25 13° E 06:05:58 10° ENE visible
28 Nov 8.4 16:43:03 10° NW 16:49:23 70° WSW 16:55:31 10° SSE visible
28 Nov 11.1 18:32:23 10° WNW 18:34:34 12° W 18:36:44 10° WSW visible
29 Nov 10.9 06:08:05 10° SSE 06:12:22 19° ESE 06:16:41 10° ENE visible
29 Nov 9.1 16:52:32 10° NW 16:58:36 49° WSW 17:04:30 10° S visible
30 Nov 10.4 06:16:09 10° SSE 06:21:23 28° ESE 06:26:42 10° NE visible
30 Nov 9.8 17:02:08 10° NW 17:07:45 34° WSW 17:13:12 10° S visible
01 Dec 9.7 06:24:40 10° S 06:30:29 40° ESE 06:36:25 10° NE visible
01 Dec 10.5 17:11:57 10° NW 17:16:48 24° WSW 17:21:32 10° SSW visible
02 Dec 11.1 17:22:11 10° WNW 17:25:47 16° WSW 17:29:19 10° SW visible
03 Dec 11.1 05:00:13 10° SE 05:03:34 15° ESE 05:06:56 10° ENE visible
04 Dec 10.5 05:07:51 10° SSE 05:12:32 22° ESE 05:17:17 10° ENE visible
05 Dec 9.9 05:16:06 10° S 05:21:35 32° ESE 05:27:09 10° NE visible
06 Dec 9.2 05:24:44 10° S 05:30:43 46° ESE 05:36:48 10° NE visible
